#timestamp,LO_Frequency,Hit,StdDev 
1459260015.9,286047003.1,N
1459260035.7,286047004.6,N
1459260055.5,286047007.4,N
1459260075.3,286047005.6,N
1459260095.2,286047005.7,N
1459260115.0,286047007.2,N
1459260115.9,286047007.2,N
1459260135.7,286047007.5,N
1459260155.6,286047007.7,N
1459260175.4,286047009.5,N
1459260195.2,286047007.9,N
1459260215.1,286047010.7,N
1459260216.0,286047010.7,N
1459260235.8,286047007.7,N
1459260255.6,286047008.1,N
1459260275.5,286047007.8,N
1459260295.3,286047011.7,N
1459260315.1,286047013.9,Y
1459260335.9,286047010.3,P
1459260355.7,286047012.4,P
1459260375.5,286047006.7,N
1459260395.4,286047008.0,N
1459260415.2,286047007.3,N
1459260435.0,286047007.2,N
1459260435.9,286047007.2,Y
1459260455.8,286047000.2,P
1459260475.6,286047002.5,N
1459260495.4,286047001.3,N
1459260515.2,286047004.3,N
1459260535.1,286047004.5,N
1459260536.0,286047004.5,N
1459260555.8,286047009.3,Y
1459260575.7,286047004.7,P
1459260595.5,286047004.3,P
1459260615.3,286047005.2,P
1459260635.2,286047004.6,Y
1459260655.9,286047004.3,P
1459260675.7,286047005.5,P
1459260695.5,286047003.6,P
1459260715.4,286047000.5,N
1459260735.2,286047002.1,N
1459260755.0,286047005.9,Y
1459260756.0,286047005.9,P
1459260775.8,286047001.2,N
1459260795.6,286047002.7,N
1459260815.4,286047002.5,N
1459260835.3,286047001.3,N
1459260855.1,286047002.6,N
1459260875.8,286047000.2,N
1459260895.7,286047001.2,N
1459260915.5,286046996.5,N
1459260935.3,286046998.9,N
1459260955.2,286046999.0,N
1459260975.9,286046999.2,N
1459260995.7,286046997.6,N
1459261015.6,286046998.4,N
1459261035.4,286047000.8,N
1459261055.2,286047003.4,N
1459261075.0,286047003.2,N
1459261076.0,286047003.2,N
1459261095.8,286047006.7,N
1459261115.6,286047008.7,Y
1459261135.5,286047005.6,P
1459261155.3,286047005.8,N
1459261175.1,286047004.3,N
1459261195.8,286047000.5,N
1459261215.7,286047002.8,N
1459261235.5,286047002.8,N
1459261255.3,286047000.8,N
1459261275.2,286046999.8,N
1459261295.9,286046999.9,N
1459261315.7,286047002.6,N
1459261335.6,286047004.3,N
1459261355.4,286047004.3,N
1459261375.2,286047004.5,N
1459261395.1,286047002.9,N
1459261396.0,286047002.9,N
1459261415.8,286047007.2,Y
1459261435.6,286047001.4,P
1459261455.5,286047004.5,P
1459261475.3,286047003.0,N
1459261495.1,286047003.3,N
1459261515.9,286047001.8,N
1459261535.7,286047004.0,Y
1459261555.5,286046998.7,P
1459261575.4,286046998.4,N
1459261595.2,286046997.7,N
1459261615.0,286046997.9,N
1459261615.9,286046997.9,N
1459261635.7,286046999.2,N
1459261655.6,286047001.0,N
1459261675.4,286046994.5,Y
1459261695.2,286046994.5,P
1459261715.1,286046996.2,N
1459261716.0,286046996.2,N
1459261735.8,286046992.2,Y
1459261755.7,286046993.1,P
1459261775.5,286046991.9,P
1459261795.3,286046989.0,P
1459261815.2,286046989.9,Y
1459261835.9,286046993.9,P
1459261855.7,286046995.1,P
1459261875.5,286046999.4,N
1459261895.4,286047002.1,N
1459261915.2,286047003.2,N
1459261935.0,286047004.7,N
1459261935.9,286047004.7,N
1459261955.8,286047001.5,N
1459261975.6,286047003.4,N
1459261995.4,286047009.0,N
1459262015.3,286047011.9,N
1459262035.1,286047010.1,N
1459262036.0,286047010.1,N
1459262055.8,286047010.5,N
1459262075.7,286047007.7,N
1459262095.5,286047006.1,N
1459262115.3,286047006.2,N
1459262135.2,286047007.7,N
1459262155.9,286047010.6,N
1459262175.7,286047005.7,N
1459262195.5,286047004.6,N
1459262215.4,286047006.0,N
1459262235.2,286047005.6,N
1459262255.0,286047005.3,N
1459262255.9,286047005.3,N
1459262275.8,286047004.2,N
1459262295.6,286047001.8,N
1459262315.4,286047001.6,N
1459262335.3,286047002.0,N
1459262355.1,286047004.3,N
1459262375.8,286047005.5,N
1459262395.7,286047007.3,N
1459262415.5,286047005.2,N
1459262435.3,286047005.7,N
1459262455.2,286047005.3,N
1459262475.9,286047001.3,N
1459262495.7,286047002.8,N
1459262515.5,286047001.4,N
1459262535.4,286046998.2,N
1459262555.2,286046998.5,N
1459262575.0,286047000.2,N
1459262575.9,286047000.2,N
1459262595.8,286047000.5,N
1459262615.6,286047000.5,N
1459262635.4,286046996.5,N
1459262655.3,286046998.9,N
1459262675.1,286046996.5,N
1459262695.8,286046996.5,N
1459262715.7,286046998.8,N
1459262735.5,286046997.7,N
1459262755.3,286046997.7,N
1459262775.2,286046997.0,N
1459262795.9,286046997.0,N
1459262815.7,286046995.3,N
1459262835.6,286046994.9,N
1459262855.4,286046994.0,N
1459262875.2,286046994.6,N
1459262895.0,286046991.0,N
1459262896.0,286046991.0,N
1459262915.8,286046989.1,N
1459262935.6,286046987.7,N
1459262955.4,286046987.1,N
1459262975.3,286046993.0,N
1459262995.1,286046993.9,N
1459263015.8,286046995.1,N
1459263035.7,286046993.8,N
1459263055.5,286046993.2,N
1459263075.3,286046992.7,N
1459263095.2,286046991.3,N
1459263115.9,286046990.5,N
1459263135.7,286046992.6,N
1459263155.6,286046990.5,N
1459263175.4,286046992.4,N
1459263195.2,286046996.3,N
1459263215.1,286046995.7,N
1459263216.0,286046995.7,N
1459263235.8,286046994.0,N
1459263255.6,286046994.9,N
1459263275.5,286046996.0,N
1459263295.3,286046995.3,N
1459263315.1,286046999.8,N
1459263335.8,286047000.2,N
1459263355.7,286047001.8,N
1459263375.5,286047003.7,N
1459263395.3,286047003.0,N
1459263415.2,286047005.3,N
1459263435.9,286047004.5,N
1459263455.7,286047006.1,N
1459263475.6,286047010.3,N
1459263495.4,286047009.5,N
1459263515.2,286047009.7,N
1459263535.1,286047009.4,N
1459263536.0,286047009.4,N
1459263555.8,286047007.9,N
1459263575.6,286047008.5,N
1459263595.5,286047006.5,N
